Location: Cheadle
(51.0146°N, 113.5417°W)
Time: 11:49:40
(UTC+00:00)

CAS-4B - Visible Passes

Search period start: 05 December 2023 00:00
Search period end: 15 December 2023 00:00
Orbit: 494 x 508 km, 43.0° (Epoch: 05 December)

Date Brightness Start Highest point End Pass type
(mag) Time Alt. Az. Time Alt. Az. Time Alt. Az.
05 Dec ? 00:22:54 10° SW 00:26:05 24° S 00:29:15 10° ESE visible
05 Dec ? 02:01:48 10° WSW 02:04:45 21° SSW 02:05:16 20° S visible
06 Dec ? 01:39:58 10° WSW 01:42:54 20° SSW 01:44:39 15° SSE visible
07 Dec ? 01:18:08 10° WSW 01:21:01 20° SSW 01:23:53 10° SSE visible
08 Dec ? 00:56:16 10° WSW 00:59:07 20° SSW 01:01:57 10° SSE visible
09 Dec ? 00:34:23 10° WSW 00:37:11 19° SSW 00:39:59 10° SSE visible
10 Dec ? 00:12:28 10° WSW 00:15:14 19° SSW 00:17:59 10° SSE visible
